Weather History for Rifle, CO

Change the Weather History Date:

Wednesday, April 2, 2014

  Actual Average Record
Temperature  
Mean Temperature 39 °F 44 °F  
Max Temperature 46 °F 59 °F 75 °F (2011)
Min Temperature 31 °F 30 °F 8 °F (1975)
Degree Days  
Heating Degree Days 26 21  
Month to date heating degree days 44 42  
Since 1 July heating degree days 5980 5826  
Cooling Degree Days 0 0  
Month to date cooling degree days 0 0  
Year to date cooling degree days 0 0  
Moisture  
Dew Point 31 °F    
Average Humidity 69    
Maximum Humidity 96    
Minimum Humidity 42    
Precipitation  
Precipitation 0.04 in 0.04 in 0.64 in (1946)
Month to date precipitation 0.04 0.08  
Year to date precipitation 2.22 2.85  
Sea Level Pressure  
Sea Level Pressure 29.74 in    
Wind  
Wind Speed 9 mph (West)    
Max Wind Speed 28 mph    
Max Gust Speed 34 mph    
Visibility 9 miles    
Events Rain , Snow    
T = Trace of Precipitation, MM = Missing Value Source: NWS Daily Summary

Daily Weather History Graph

Daily Weather History Graph

Search for Another Location

Airport:

Trip Planner

Search our weather history database for the weather conditions in past years. The results will help you decide how hot, cold, wet, or windy it might be!

Date:

Astronomy

Apr. 02, 2014 Rise Set
Actual Time 6:53 AM MDT 7:35 PM MDT
Civil Twilight 6:26 AM MDT 8:03 PM MDT
Nautical Twilight 5:54 AM MDT 8:35 PM MDT
Astronomical Twilight 5:21 AM MDT 9:08 PM MDT
Moon 8:40 AM MDT (4/2) 11:01 PM MDT (4/2)
Length of Visible Light 13h 36m
Length of Day
12h 42m
Waxing Crescent, 10% of the Moon is Illuminated
Apr 2
Waxing Crescent
Apr 7
First Quarter
Apr 15
Full
Apr 22
Last Quarter
Apr 29
New

Hourly Weather History & Observations

Time (MDT) Temp. Windchill Dew Point Humidity Pressure Visibility Wind Dir Wind Speed Gust Speed Precip Events Conditions
12:53 AM 37.9 °F - 23.0 °F 55% 29.61 in 10.0 mi Calm Calm - N/A   Overcast
1:53 AM 39.0 °F 36.8 °F 23.0 °F 53% 29.62 in 10.0 mi West 3.5 mph - N/A   Overcast
2:53 AM 39.9 °F 32.9 °F 28.0 °F 63% 29.63 in 10.0 mi NW 11.5 mph - N/A   Overcast
3:53 AM 39.0 °F 29.0 °F 30.0 °F 70% 29.64 in 10.0 mi West 20.7 mph - N/A   Overcast
4:53 AM 36.0 °F 28.0 °F 32.0 °F 86% 29.66 in 10.0 mi WNW 11.5 mph - 0.00 in   Overcast
5:04 AM 36.0 °F 28.0 °F 32.0 °F 86% 29.73 in 10.0 mi West 11.5 mph - N/A   Overcast
6:37 AM 34.0 °F 26.6 °F 32.0 °F 92% 29.73 in 10.0 mi WNW 9.2 mph - 0.00 in   Overcast
6:48 AM 33.8 °F 26.4 °F 32.0 °F 93% 29.73 in 10.0 mi West 9.2 mph - 0.00 in   Overcast
6:53 AM 34.0 °F 28.0 °F 32.0 °F 92% 29.68 in 10.0 mi West 6.9 mph - 0.00 in   Overcast
7:03 AM 34.0 °F 24.6 °F 32.0 °F 92% 29.75 in 10.0 mi West 13.8 mph - N/A   Overcast
7:28 AM 33.1 °F 25.5 °F 32.0 °F 96% 29.74 in 6.0 mi West 9.2 mph - 0.02 in Snow Light Snow
7:53 AM 34.0 °F 28.0 °F 32.0 °F 92% 29.70 in 10.0 mi WNW 6.9 mph - 0.02 in   Overcast
8:02 AM 34.0 °F 28.0 °F 32.0 °F 92% 29.75 in 10.0 mi West 6.9 mph - N/A   Overcast
8:17 AM 34.0 °F 29.8 °F 32.0 °F 92% 29.75 in 4.0 mi WNW 4.6 mph - 0.00 in Snow Light Snow
8:36 AM 34.0 °F 28.0 °F 32.0 °F 92% 29.74 in 9.0 mi WNW 6.9 mph - 0.00 in   Overcast
8:46 AM 34.0 °F 29.8 °F 32.0 °F 92% 29.74 in 10.0 mi West 4.6 mph - 0.00 in   Overcast
8:53 AM 34.0 °F 27.2 °F 32.0 °F 92% 29.72 in 10.0 mi West 8.1 mph - 0.00 in   Overcast
9:07 AM 35.1 °F 27.9 °F 32.0 °F 89% 29.75 in 7.0 mi West 9.2 mph - 0.00 in Snow Light Snow
9:19 AM 35.1 °F 26.9 °F 32.0 °F 89% 29.75 in 9.0 mi West 11.5 mph - 0.00 in Snow Light Snow
9:25 AM 35.1 °F 27.9 °F 32.0 °F 89% 29.75 in 9.0 mi West 9.2 mph - 0.00 in   Overcast
9:42 AM 35.1 °F 29.3 °F 32.0 °F 89% 29.76 in 10.0 mi West 6.9 mph - 0.00 in   Overcast
9:53 AM 36.0 °F 28.0 °F 32.0 °F 86% 29.74 in 10.0 mi West 11.5 mph - 0.00 in   Overcast
10:06 AM 36.0 °F 27.5 °F 33.1 °F 89% 29.76 in 10.0 mi West 12.7 mph - N/A   Overcast
10:15 AM 37.0 °F 28.9 °F 34.0 °F 89% 29.76 in 10.0 mi West 12.7 mph - N/A   Mostly Cloudy
10:53 AM 39.0 °F 32.3 °F 32.0 °F 76% 29.73 in 10.0 mi WNW 10.4 mph - N/A   Overcast
11:53 AM 39.9 °F 31.8 °F 30.9 °F 70% 29.73 in 10.0 mi West 15.0 mph - N/A   Overcast
12:53 PM 42.1 °F 34.2 °F 30.0 °F 62% 29.70 in 10.0 mi WSW 16.1 mph - N/A   Partly Cloudy
1:53 PM 46.0 °F - 24.1 °F 42% 29.67 in - North - - N/A   Scattered Clouds
2:53 PM 44.1 °F 40.8 °F 26.1 °F 49% 29.68 in 10.0 mi SSE 5.8 mph - N/A   Mostly Cloudy
3:53 PM 39.9 °F 30.5 °F 28.0 °F 63% 29.71 in 6.0 mi WSW 19.6 mph 28.8 mph 0.00 in Rain Light Rain
4:22 PM 41.0 °F - 30.0 °F 65% 29.72 in 10.0 mi Calm Calm - 0.00 in   Mostly Cloudy
4:53 PM 43.0 °F 38.8 °F 30.0 °F 60% 29.68 in 10.0 mi NE 6.9 mph - 0.00 in   Overcast
5:53 PM 42.1 °F 34.2 °F 27.0 °F 55% 29.71 in 10.0 mi SW 16.1 mph 23.0 mph 0.00 in Rain Light Rain
6:53 PM 37.9 °F 28.2 °F 30.0 °F 73% 29.77 in 10.0 mi WNW 18.4 mph 31.1 mph 0.01 in   Overcast
7:10 PM 35.1 °F 24.8 °F 30.0 °F 82% 29.79 in 4.0 mi WNW 17.3 mph - 0.00 in Snow Light Snow
7:30 PM 33.1 °F 24.9 °F 30.9 °F 92% 29.79 in 1.2 mi West 10.4 mph - 0.00 in Snow Light Snow
7:40 PM 33.1 °F 24.4 °F 30.9 °F 92% 29.79 in 3.0 mi West 11.5 mph - 0.00 in Snow Light Snow
7:46 PM 34.0 °F 26.6 °F 30.9 °F 89% 29.79 in 7.0 mi West 9.2 mph - 0.00 in Snow Light Snow
7:53 PM 34.0 °F 28.8 °F 32.0 °F 92% 29.81 in 9.0 mi West 5.8 mph - 0.00 in   Overcast
8:53 PM 35.1 °F - 30.9 °F 85% 29.82 in 10.0 mi Calm Calm - N/A   Overcast
9:19 PM 35.1 °F 32.2 °F 32.0 °F 89% 29.82 in 10.0 mi ENE 3.5 mph - N/A   Overcast
9:48 PM 35.6 °F - 32.0 °F 87% 29.82 in 10.0 mi Calm Calm - N/A   Overcast
10:02 PM 35.1 °F - 32.0 °F 89% 29.82 in 10.0 mi Calm Calm - N/A   Overcast
10:23 PM 34.0 °F - 30.9 °F 89% 29.81 in 10.0 mi Calm Calm - N/A   Overcast
10:53 PM 34.0 °F - 30.9 °F 89% 29.81 in 10.0 mi Calm Calm - N/A   Partly Cloudy
11:53 PM 32.0 °F - 28.9 °F 88% 29.82 in 10.0 mi Calm Calm - N/A   Clear